User: anonymous   Login
Location: Barcelona
(41.3830°N, 2.1830°E)
Time: 15:51:12
(UTC+02:00)
Language:

AIST 2D - Orbit

View from above orbital plane
View from above orbital plane
View from above satellite
View from above satellite

Ground track
Ground track

The orbit data is extracted from the following two-line orbital elements,

1 41465U 16026B   19292.09802905  .00001339  00000-0  42874-4 0  9996
2 41465  97.1739 184.0956 0012918  47.0309  62.7644 15.34039872194268
Epoch (UTC): 19 October 2019 02:21:09
Eccentricity: 0.0012918
inclination: 97.1739°
perigee height: 455 km
apogee height: 472 km
right ascension of ascending node: 184.0956°
argument of perigee: 47.0309°
revolutions per day: 15.34039872
mean anomaly at epoch: 62.7644°
orbit number at epoch: 19426

The dashed part of the orbit path shows where the satellite is in the earth's shadow,  

DLR